Time,TemperatureF,DewpointF,PressureIn,WindDirection,WindDirectionDegrees,WindSpeedMPH,WindSpeedGustMPH,Humidity,HourlyPrecipIn,Conditions,Clouds,dailyrainin,SoftwareType,DateUTC
2013-01-04 00:01:00,48.2,37.4,30.30,NNE,32,5.2,11.2,66,0.00,,---,0.00,VWS V14.01,2013-01-04 06:01:00,
2013-01-04 00:06:00,48.2,37.4,30.30,NNE,17,6.2,12.2,66,0.00,,---,0.00,VWS V14.01,2013-01-04 06:06:00,
2013-01-04 00:11:00,48.2,37.4,30.30,NNE,18,5.2,10.2,66,0.00,,---,0.00,VWS V14.01,2013-01-04 06:11:00,
2013-01-04 00:16:00,48.2,37.4,30.29,NE,48,6.2,12.2,66,0.00,,---,0.00,VWS V14.01,2013-01-04 06:16:00,
2013-01-04 00:21:00,48.0,37.2,30.29,NNE,15,5.2,12.2,66,0.00,,---,0.00,VWS V14.01,2013-01-04 06:21:00,
2013-01-04 00:26:00,48.0,37.6,30.29,NNE,15,5.2,12.2,67,0.00,,---,0.00,VWS V14.01,2013-01-04 06:26:00,
2013-01-04 00:31:00,48.0,37.6,30.29,NNE,22,6.2,13.2,67,0.00,,---,0.00,VWS V14.01,2013-01-04 06:31:00,
2013-01-04 00:36:00,48.0,37.6,30.29,North,5,6.2,11.2,67,0.00,,---,0.00,VWS V14.01,2013-01-04 06:36:00,
2013-01-04 00:41:00,48.0,38.0,30.29,North,11,3.2,13.2,68,0.00,,---,0.00,VWS V14.01,2013-01-04 06:41:00,
2013-01-04 00:46:00,48.0,38.3,30.29,NNE,28,3.2,10.2,69,0.00,,---,0.00,VWS V14.01,2013-01-04 06:46:00,
2013-01-04 00:51:00,47.9,38.2,30.29,North,355,6.2,12.2,69,0.00,,---,0.00,VWS V14.01,2013-01-04 06:51:00,
2013-01-04 00:56:00,47.7,38.0,30.29,North,355,7.2,11.2,69,0.00,,---,0.00,VWS V14.01,2013-01-04 06:56:00,
2013-01-04 01:01:00,47.7,37.7,30.29,NNE,25,4.2,12.2,68,0.00,,---,0.00,VWS V14.01,2013-01-04 07:01:00,
2013-01-04 01:06:00,47.6,38.0,30.29,North,5,5.2,13.2,69,0.00,,---,0.00,VWS V14.01,2013-01-04 07:06:00,
2013-01-04 01:11:00,47.6,38.0,30.29,North,360,4.2,13.2,69,0.00,,---,0.00,VWS V14.01,2013-01-04 07:11:00,
2013-01-04 01:16:00,47.6,38.0,30.29,NNE,14,5.2,8.2,69,0.00,,---,0.00,VWS V14.01,2013-01-04 07:16:00,
2013-01-04 01:21:00,47.6,38.0,30.29,North,9,5.2,11.2,69,0.00,,---,0.00,VWS V14.01,2013-01-04 07:21:00,
2013-01-04 01:26:00,47.4,37.8,30.29,NNE,15,5.2,11.2,69,0.00,,---,0.00,VWS V14.01,2013-01-04 07:26:00,
2013-01-04 01:31:00,47.4,37.8,30.29,NNW,335,8.2,9.2,69,0.00,,---,0.00,VWS V14.01,2013-01-04 07:31:00,
2013-01-04 01:36:00,47.4,37.8,30.29,North,355,5.2,11.2,69,0.00,,---,0.00,VWS V14.01,2013-01-04 07:36:00,
2013-01-04 01:41:00,47.3,37.7,30.29,NNW,343,6.2,11.2,69,0.00,,---,0.00,VWS V14.01,2013-01-04 07:41:00,
2013-01-04 01:46:00,47.3,37.7,30.29,NW,318,5.2,11.2,69,0.00,,---,0.00,VWS V14.01,2013-01-04 07:46:00,
2013-01-04 01:51:00,47.3,37.7,30.29,NNW,336,8.2,11.2,69,0.00,,---,0.00,VWS V14.01,2013-01-04 07:51:00,
2013-01-04 01:56:00,47.3,37.7,30.29,NW,313,6.2,12.2,69,0.00,,---,0.00,VWS V14.01,2013-01-04 07:56:00,
2013-01-04 02:01:00,47.3,37.7,30.29,NNE,15,6.2,11.2,69,0.00,,---,0.00,VWS V14.01,2013-01-04 08:01:00,
2013-01-04 02:06:00,47.3,37.7,30.29,NNW,348,5.2,10.2,69,0.00,,---,0.00,VWS V14.01,2013-01-04 08:06:00,
2013-01-04 02:11:00,47.3,38.0,30.29,NNW,348,10.2,10.2,70,0.00,,---,0.00,VWS V14.01,2013-01-04 08:11:00,
2013-01-04 02:15:00,47.3,38.0,30.28,North,360,11.2,12.2,70,0.00,,---,0.00,VWS V14.01,2013-01-04 08:15:00,
2013-01-04 02:20:00,47.1,37.8,30.28,NNE,13,6.2,12.2,70,0.00,,---,0.00,VWS V14.01,2013-01-04 08:20:00,
2013-01-04 02:25:00,47.1,37.8,30.28,NNE,13,7.2,11.2,70,0.00,,---,0.00,VWS V14.01,2013-01-04 08:25:00,
2013-01-04 02:30:00,47.1,37.8,30.28,NNE,22,8.2,13.2,70,0.00,,---,0.00,VWS V14.01,2013-01-04 08:30:00,
2013-01-04 02:35:00,47.1,37.8,30.28,NNW,331,4.2,15.2,70,0.00,,---,0.00,VWS V14.01,2013-01-04 08:35:00,
2013-01-04 02:40:00,47.1,38.2,30.28,North,5,5.2,13.2,71,0.00,,---,0.00,VWS V14.01,2013-01-04 08:40:00,
2013-01-04 02:45:00,47.1,38.2,30.27,North,360,9.2,11.2,71,0.00,,---,0.00,VWS V14.01,2013-01-04 08:45:00,
2013-01-04 02:50:00,47.1,38.2,30.27,North,11,6.2,14.2,71,0.00,,---,0.00,VWS V14.01,2013-01-04 08:50:00,
2013-01-04 02:55:00,47.1,38.2,30.27,North,11,14.2,15.2,71,0.00,,---,0.00,VWS V14.01,2013-01-04 08:55:00,
2013-01-04 03:00:00,47.1,38.2,30.28,North,355,5.2,13.2,71,0.00,,---,0.00,VWS V14.01,2013-01-04 09:00:00,
2013-01-04 03:05:00,47.1,38.5,30.28,North,360,11.2,13.2,72,0.00,,---,0.00,VWS V14.01,2013-01-04 09:05:00,
2013-01-04 03:10:00,47.1,38.5,30.28,NNE,13,14.2,14.2,72,0.00,,---,0.00,VWS V14.01,2013-01-04 09:10:00,
2013-01-04 03:15:00,47.1,38.5,30.28,North,349,15.2,15.2,72,0.00,,---,0.00,VWS V14.01,2013-01-04 09:15:00,
2013-01-04 03:20:00,47.3,38.4,30.28,North,11,5.2,15.2,71,0.00,,---,0.00,VWS V14.01,2013-01-04 09:20:00,
2013-01-04 03:25:00,47.3,38.4,30.28,North,5,5.2,12.2,71,0.00,,---,0.00,VWS V14.01,2013-01-04 09:25:00,
2013-01-04 03:30:00,47.4,38.5,30.29,NNE,13,7.2,11.2,71,0.00,,---,0.00,VWS V14.01,2013-01-04 09:30:00,
2013-01-04 03:35:00,47.4,38.5,30.29,NNE,17,10.2,14.2,71,0.00,,---,0.00,VWS V14.01,2013-01-04 09:35:00,
2013-01-04 03:40:00,47.4,38.8,30.29,North,355,7.2,14.2,72,0.00,,---,0.00,VWS V14.01,2013-01-04 09:40:00,
2013-01-04 03:45:00,47.6,39.0,30.29,North,349,5.2,16.2,72,0.00,,---,0.00,VWS V14.01,2013-01-04 09:45:00,
2013-01-04 03:50:00,47.6,38.7,30.29,North,5,7.2,18.2,71,0.00,,---,0.00,VWS V14.01,2013-01-04 09:50:00,
2013-01-04 03:55:00,47.6,38.7,30.29,NNW,339,6.2,15.2,71,0.00,,---,0.00,VWS V14.01,2013-01-04 09:55:00,
2013-01-04 04:00:00,47.6,38.7,30.29,North,355,5.2,14.2,71,0.00,,---,0.00,VWS V14.01,2013-01-04 10:00:00,
2013-01-04 04:05:00,47.6,38.3,30.29,North,5,8.2,14.2,70,0.00,,---,0.00,VWS V14.01,2013-01-04 10:05:00,
2013-01-04 04:10:00,47.7,38.8,30.29,NW,325,6.2,16.2,71,0.00,,---,0.00,VWS V14.01,2013-01-04 10:10:00,
2013-01-04 04:15:00,47.6,38.7,30.29,North,350,8.2,15.2,71,0.00,,---,0.00,VWS V14.01,2013-01-04 10:15:00,
2013-01-04 04:20:00,47.6,38.3,30.29,NNE,17,7.2,15.2,70,0.00,,---,0.00,VWS V14.01,2013-01-04 10:20:00,
2013-01-04 04:25:00,47.6,38.3,30.29,North,5,14.2,18.2,70,0.00,,---,0.00,VWS V14.01,2013-01-04 10:25:00,
2013-01-04 04:30:00,47.7,38.4,30.29,North,351,11.2,16.2,70,0.00,,---,0.00,VWS V14.01,2013-01-04 10:30:00,
2013-01-04 04:35:00,47.7,38.4,30.29,NE,38,6.2,13.2,70,0.00,,---,0.00,VWS V14.01,2013-01-04 10:35:00,
2013-01-04 04:40:00,47.7,38.8,30.29,North,11,9.2,18.2,71,0.00,,---,0.00,VWS V14.01,2013-01-04 10:40:00,
2013-01-04 04:45:00,47.7,38.4,30.29,North,360,14.2,15.2,70,0.00,,---,0.00,VWS V14.01,2013-01-04 10:45:00,
2013-01-04 04:50:00,47.7,38.8,30.29,North,360,5.2,16.2,71,0.00,,---,0.00,VWS V14.01,2013-01-04 10:50:00,
2013-01-04 04:55:00,47.6,39.4,30.29,NNW,340,13.2,16.2,73,0.00,,---,0.00,VWS V14.01,2013-01-04 10:55:00,
2013-01-04 05:00:00,47.3,39.1,30.29,NNE,12,11.2,15.2,73,0.00,,---,0.00,VWS V14.01,2013-01-04 11:00:00,
2013-01-04 05:05:00,47.3,39.5,30.29,NNE,14,4.2,13.2,74,0.00,,---,0.00,VWS V14.01,2013-01-04 11:05:00,
2013-01-04 05:10:00,47.3,39.5,30.29,NE,40,5.2,12.2,74,0.00,,---,0.00,VWS V14.01,2013-01-04 11:10:00,
2013-01-04 05:15:00,47.1,39.2,30.30,NNW,328,5.2,12.2,74,0.00,,---,0.00,VWS V14.01,2013-01-04 11:15:00,
2013-01-04 05:20:00,47.3,39.1,30.30,NNW,331,15.2,16.2,73,0.00,,---,0.00,VWS V14.01,2013-01-04 11:20:00,
2013-01-04 05:25:00,47.3,39.1,30.30,NNW,338,6.2,18.2,73,0.00,,---,0.00,VWS V14.01,2013-01-04 11:25:00,
2013-01-04 05:30:00,47.3,39.1,30.30,NNE,21,13.2,18.2,73,0.00,,---,0.00,VWS V14.01,2013-01-04 11:30:00,
2013-01-04 05:35:00,47.4,38.8,30.30,NNW,331,8.2,16.2,72,0.00,,---,0.00,VWS V14.01,2013-01-04 11:35:00,
2013-01-04 05:40:00,47.4,38.8,30.30,NE,40,8.2,19.2,72,0.00,,---,0.00,VWS V14.01,2013-01-04 11:40:00,
2013-01-04 05:45:00,47.4,38.8,30.30,NNE,30,7.2,18.2,72,0.00,,---,0.00,VWS V14.01,2013-01-04 11:45:00,
2013-01-04 05:50:00,47.6,39.0,30.30,North,350,13.2,19.2,72,0.00,,---,0.00,VWS V14.01,2013-01-04 11:50:00,
2013-01-04 05:55:00,47.6,39.0,30.30,NNE,26,6.2,17.2,72,0.00,,---,0.00,VWS V14.01,2013-01-04 11:55:00,
2013-01-04 06:00:00,47.6,39.4,30.30,NNW,328,10.2,18.2,73,0.00,,---,0.00,VWS V14.01,2013-01-04 12:00:00,
2013-01-04 06:05:00,47.4,39.5,30.30,North,355,7.2,16.2,74,0.00,,---,0.00,VWS V14.01,2013-01-04 12:05:00,
2013-01-04 06:10:00,47.3,39.5,30.30,North,9,8.2,20.2,74,0.00,,---,0.00,VWS V14.01,2013-01-04 12:10:00,
2013-01-04 06:15:00,47.1,39.9,30.30,NE,41,12.2,17.2,76,0.00,,---,0.00,VWS V14.01,2013-01-04 12:15:00,
2013-01-04 06:20:00,46.8,40.0,30.30,NNE,13,8.2,15.2,77,0.00,,---,0.00,VWS V14.01,2013-01-04 12:20:00,
2013-01-04 06:25:00,46.7,39.9,30.30,NNE,28,8.2,18.2,77,0.00,,---,0.00,VWS V14.01,2013-01-04 12:25:00,
2013-01-04 06:30:00,46.4,39.9,30.30,North,360,12.2,18.2,78,0.00,,---,0.00,VWS V14.01,2013-01-04 12:30:00,
2013-01-04 06:35:00,46.4,39.9,30.30,North,355,10.2,19.2,78,0.00,,---,0.00,VWS V14.01,2013-01-04 12:35:00,
2013-01-04 06:40:00,46.2,40.1,30.30,NNE,21,12.2,19.2,79,0.00,,---,0.00,VWS V14.01,2013-01-04 12:40:00,
2013-01-04 06:45:00,46.2,40.4,30.31,NNE,15,12.2,18.2,80,0.00,,---,0.00,VWS V14.01,2013-01-04 12:45:00,
2013-01-04 06:50:00,46.1,40.6,30.31,NNE,29,18.2,18.2,81,0.00,,---,0.00,VWS V14.01,2013-01-04 12:50:00,
2013-01-04 06:55:00,46.1,40.9,30.31,NNE,16,11.2,15.2,82,0.00,,---,0.00,VWS V14.01,2013-01-04 12:55:00,
2013-01-04 07:00:00,46.0,41.1,30.31,NE,43,6.2,18.2,83,0.00,,---,0.00,VWS V14.01,2013-01-04 13:00:00,
2013-01-04 07:05:00,45.8,41.5,30.31,NNE,13,10.2,17.2,85,0.00,,---,0.00,VWS V14.01,2013-01-04 13:05:00,
2013-01-04 07:10:00,45.7,41.5,30.31,NNE,13,15.2,17.2,85,0.00,,---,0.00,VWS V14.01,2013-01-04 13:10:00,
2013-01-04 07:15:00,45.7,41.8,30.32,NNE,22,11.2,16.2,86,0.00,,---,0.00,VWS V14.01,2013-01-04 13:15:00,
2013-01-04 07:20:00,45.5,41.9,30.32,NNE,28,13.2,16.2,87,0.00,,---,0.00,VWS V14.01,2013-01-04 13:20:00,
2013-01-04 07:25:00,45.4,41.8,30.32,North,350,13.2,20.2,87,0.00,,---,0.00,VWS V14.01,2013-01-04 13:25:00,
2013-01-04 07:30:00,45.2,41.9,30.33,NE,35,12.2,16.2,88,0.00,,---,0.00,VWS V14.01,2013-01-04 13:30:00,
2013-01-04 07:35:00,45.2,42.2,30.33,NNE,24,14.2,21.2,89,0.00,,---,0.00,VWS V14.01,2013-01-04 13:35:00,
2013-01-04 07:40:00,45.1,42.1,30.33,NNE,15,12.2,17.2,89,0.00,,---,0.00,VWS V14.01,2013-01-04 13:40:00,
2013-01-04 07:45:00,45.1,42.3,30.33,NNE,15,10.2,15.2,90,0.00,,---,0.00,VWS V14.01,2013-01-04 13:45:00,
2013-01-04 07:50:00,45.1,42.3,30.33,ENE,59,9.2,18.2,90,0.00,,---,0.00,VWS V14.01,2013-01-04 13:50:00,
2013-01-04 07:55:00,44.9,42.4,30.33,NNE,27,6.2,16.2,91,0.00,,---,0.00,VWS V14.01,2013-01-04 13:55:00,
2013-01-04 08:00:00,44.9,42.7,30.35,NE,36,7.2,15.2,92,0.00,,---,0.00,VWS V14.01,2013-01-04 14:00:00,
2013-01-04 08:05:00,44.9,42.7,30.35,NNW,343,13.2,15.2,92,0.00,,---,0.00,VWS V14.01,2013-01-04 14:05:00,
2013-01-04 08:10:00,44.8,42.9,30.35,NNE,12,7.2,14.2,93,0.00,,---,0.00,VWS V14.01,2013-01-04 14:10:00,
2013-01-04 08:15:00,44.8,42.9,30.35,NNE,16,7.2,15.2,93,0.00,,---,0.00,VWS V14.01,2013-01-04 14:15:00,
2013-01-04 08:20:00,44.8,43.2,30.35,NNE,12,8.2,16.2,94,0.01,,---,0.01,VWS V14.01,2013-01-04 14:20:00,
2013-01-04 08:25:00,44.8,43.2,30.35,NNE,13,8.2,17.2,94,0.01,,---,0.01,VWS V14.01,2013-01-04 14:25:00,
2013-01-04 08:30:00,44.6,43.3,30.36,North,5,10.2,16.2,95,0.01,,---,0.01,VWS V14.01,2013-01-04 14:30:00,
2013-01-04 08:35:00,44.6,43.3,30.36,NNE,15,12.2,14.2,95,0.01,,---,0.01,VWS V14.01,2013-01-04 14:35:00,
2013-01-04 08:40:00,44.5,43.2,30.36,NNE,18,8.2,17.2,95,0.01,,---,0.01,VWS V14.01,2013-01-04 14:40:00,
2013-01-04 08:45:00,44.3,43.0,30.36,NE,35,6.2,14.2,95,0.01,,---,0.01,VWS V14.01,2013-01-04 14:45:00,
2013-01-04 08:50:00,44.5,43.2,30.36,NNW,348,5.2,13.2,95,0.02,,---,0.02,VWS V14.01,2013-01-04 14:50:00,
2013-01-04 08:55:00,44.3,43.0,30.36,NE,38,3.2,16.2,95,0.02,,---,0.02,VWS V14.01,2013-01-04 14:55:00,
2013-01-04 09:00:00,44.3,43.2,30.36,NNE,20,10.2,14.2,96,0.02,,---,0.02,VWS V14.01,2013-01-04 15:00:00,
2013-01-04 09:05:00,44.3,43.2,30.36,NE,38,10.2,16.2,96,0.02,,---,0.02,VWS V14.01,2013-01-04 15:05:00,
2013-01-04 09:10:00,44.2,43.1,30.36,North,5,8.2,13.2,96,0.02,,---,0.02,VWS V14.01,2013-01-04 15:10:00,
2013-01-04 09:15:00,44.2,43.1,30.37,North,355,11.2,18.2,96,0.02,,---,0.02,VWS V14.01,2013-01-04 15:15:00,
2013-01-04 09:20:00,44.3,43.2,30.37,NNE,32,7.2,15.2,96,0.02,,---,0.02,VWS V14.01,2013-01-04 15:20:00,
2013-01-04 09:25:00,44.3,43.2,30.37,East,87,10.2,17.2,96,0.01,,---,0.02,VWS V14.01,2013-01-04 15:25:00,
2013-01-04 09:30:00,44.5,43.4,30.37,NNE,26,12.2,14.2,96,0.01,,---,0.02,VWS V14.01,2013-01-04 15:30:00,
2013-01-04 09:35:00,44.5,43.2,30.37,NNE,20,11.2,17.2,95,0.01,,---,0.02,VWS V14.01,2013-01-04 15:35:00,
2013-01-04 09:40:00,44.8,43.5,30.37,NNE,24,13.2,20.2,95,0.01,,---,0.02,VWS V14.01,2013-01-04 15:40:00,
2013-01-04 09:45:00,45.1,43.5,30.36,NE,38,8.2,19.2,94,0.01,,---,0.02,VWS V14.01,2013-01-04 15:45:00,
2013-01-04 09:50:00,45.4,43.5,30.36,NNE,19,5.2,17.2,93,0.01,,---,0.02,VWS V14.01,2013-01-04 15:50:00,
2013-01-04 09:55:00,45.7,43.5,30.36,North,349,14.2,16.2,92,0.00,,---,0.02,VWS V14.01,2013-01-04 15:55:00,
2013-01-04 10:00:00,46.0,43.2,30.36,North,5,6.2,18.2,90,0.00,,---,0.02,VWS V14.01,2013-01-04 16:00:00,
2013-01-04 10:05:00,46.2,42.8,30.36,North,9,11.2,17.2,88,0.00,,---,0.02,VWS V14.01,2013-01-04 16:05:00,
2013-01-04 10:10:00,46.5,42.8,30.36,NNE,15,8.2,14.2,87,0.00,,---,0.02,VWS V14.01,2013-01-04 16:10:00,
2013-01-04 10:15:00,46.7,42.1,30.36,ENE,66,10.2,16.2,84,0.00,,---,0.02,VWS V14.01,2013-01-04 16:15:00,
2013-01-04 10:20:00,47.0,42.4,30.36,NE,38,13.2,14.2,84,0.00,,---,0.02,VWS V14.01,2013-01-04 16:20:00,
2013-01-04 10:25:00,47.3,42.1,30.36,ENE,58,7.2,14.2,82,0.00,,---,0.02,VWS V14.01,2013-01-04 16:25:00,
2013-01-04 10:30:00,47.4,41.9,30.36,NNE,19,15.2,15.2,81,0.00,,---,0.02,VWS V14.01,2013-01-04 16:30:00,
2013-01-04 10:35:00,47.6,41.8,30.36,NE,54,15.2,16.2,80,0.00,,---,0.02,VWS V14.01,2013-01-04 16:35:00,
2013-01-04 10:40:00,47.6,41.4,30.36,NNE,24,14.2,15.2,79,0.00,,---,0.02,VWS V14.01,2013-01-04 16:40:00,
2013-01-04 10:45:00,47.7,41.5,30.35,North,9,11.2,14.2,79,0.00,,---,0.02,VWS V14.01,2013-01-04 16:45:00,
2013-01-04 10:50:00,47.9,41.4,30.35,NNE,28,7.2,17.2,78,0.00,,---,0.02,VWS V14.01,2013-01-04 16:50:00,
2013-01-04 10:55:00,47.9,41.0,30.35,NNE,17,3.2,14.2,77,0.00,,---,0.02,VWS V14.01,2013-01-04 16:55:00,
2013-01-04 11:00:00,48.0,41.5,30.35,NNE,20,10.2,13.2,78,0.00,,---,0.02,VWS V14.01,2013-01-04 17:00:00,
2013-01-04 11:05:00,48.0,41.2,30.35,NE,42,13.2,16.2,77,0.00,,---,0.02,VWS V14.01,2013-01-04 17:05:00,
2013-01-04 11:10:00,48.2,41.0,30.35,NE,35,13.2,17.2,76,0.00,,---,0.02,VWS V14.01,2013-01-04 17:10:00,
2013-01-04 11:15:00,48.2,41.0,30.35,NE,55,5.2,20.2,76,0.00,,---,0.02,VWS V14.01,2013-01-04 17:15:00,
2013-01-04 11:20:00,48.2,40.3,30.35,NE,36,13.2,17.2,74,0.00,,---,0.02,VWS V14.01,2013-01-04 17:20:00,
2013-01-04 11:25:00,48.2,40.7,30.35,North,5,10.2,13.2,75,0.00,,---,0.02,VWS V14.01,2013-01-04 17:25:00,
2013-01-04 11:30:00,48.2,40.3,30.35,NE,55,13.2,17.2,74,0.00,,---,0.02,VWS V14.01,2013-01-04 17:30:00,
2013-01-04 11:35:00,48.3,40.8,30.35,ENE,64,8.2,19.2,75,0.00,,---,0.02,VWS V14.01,2013-01-04 17:35:00,
2013-01-04 11:40:00,48.3,40.4,30.35,NE,44,14.2,18.2,74,0.00,,---,0.02,VWS V14.01,2013-01-04 17:40:00,
2013-01-04 11:45:00,48.5,40.6,30.34,NNE,21,8.2,16.2,74,0.00,,---,0.02,VWS V14.01,2013-01-04 17:45:00,
2013-01-04 11:50:00,48.6,40.3,30.34,NE,51,14.2,19.2,73,0.00,,---,0.02,VWS V14.01,2013-01-04 17:50:00,
2013-01-04 11:55:00,48.8,40.9,30.34,ENE,58,15.2,18.2,74,0.00,,---,0.02,VWS V14.01,2013-01-04 17:55:00,
2013-01-04 12:00:00,48.8,40.5,30.33,North,360,5.2,17.2,73,0.00,,---,0.02,VWS V14.01,2013-01-04 18:00:00,
2013-01-04 12:05:00,48.6,39.6,30.33,NNE,17,11.2,20.2,71,0.00,,---,0.02,VWS V14.01,2013-01-04 18:05:00,
2013-01-04 12:10:00,48.6,39.6,30.33,NE,34,7.2,18.2,71,0.00,,---,0.02,VWS V14.01,2013-01-04 18:10:00,
2013-01-04 12:15:00,48.8,40.5,30.33,NE,39,15.2,16.2,73,0.00,,---,0.02,VWS V14.01,2013-01-04 18:15:00,
2013-01-04 12:20:00,48.8,40.2,30.33,NNE,32,8.2,17.2,72,0.00,,---,0.02,VWS V14.01,2013-01-04 18:20:00,
2013-01-04 12:25:00,48.8,40.2,30.33,NE,38,10.2,16.2,72,0.00,,---,0.02,VWS V14.01,2013-01-04 18:25:00,
2013-01-04 12:30:00,48.8,39.8,30.32,NE,43,8.2,20.2,71,0.00,,---,0.02,VWS V14.01,2013-01-04 18:30:00,
2013-01-04 12:35:00,48.8,40.2,30.32,NNE,31,13.2,20.2,72,0.00,,---,0.02,VWS V14.01,2013-01-04 18:35:00,
2013-01-04 12:40:00,48.9,39.9,30.32,NE,47,20.2,20.2,71,0.00,,---,0.02,VWS V14.01,2013-01-04 18:40:00,
2013-01-04 12:45:00,48.8,39.5,30.31,NNE,18,8.2,18.2,70,0.00,,---,0.02,VWS V14.01,2013-01-04 18:45:00,
2013-01-04 12:50:00,48.8,40.2,30.31,NNE,19,7.2,22.2,72,0.00,,---,0.02,VWS V14.01,2013-01-04 18:50:00,
2013-01-04 12:55:00,48.8,40.2,30.31,NE,48,7.2,17.2,72,0.00,,---,0.02,VWS V14.01,2013-01-04 18:55:00,
2013-01-04 13:00:00,48.8,40.2,30.30,NNE,32,10.2,16.2,72,0.00,,---,0.02,VWS V14.01,2013-01-04 19:00:00,
2013-01-04 13:05:00,48.6,39.6,30.30,North,355,14.2,21.2,71,0.00,,---,0.02,VWS V14.01,2013-01-04 19:05:00,
2013-01-04 13:10:00,48.6,40.0,30.30,NNE,15,8.2,13.2,72,0.00,,---,0.02,VWS V14.01,2013-01-04 19:10:00,
2013-01-04 13:15:00,48.6,40.0,30.30,North,5,7.2,13.2,72,0.00,,---,0.02,VWS V14.01,2013-01-04 19:15:00,
2013-01-04 13:20:00,48.6,39.6,30.30,NNE,29,17.2,21.2,71,0.00,,---,0.02,VWS V14.01,2013-01-04 19:20:00,
2013-01-04 13:25:00,48.5,39.5,30.30,NE,48,7.2,19.2,71,0.00,,---,0.02,VWS V14.01,2013-01-04 19:25:00,
2013-01-04 13:30:00,48.6,40.0,30.30,NE,53,12.2,16.2,72,0.00,,---,0.02,VWS V14.01,2013-01-04 19:30:00,
2013-01-04 13:35:00,48.5,39.5,30.30,NE,55,14.2,19.2,71,0.00,,---,0.02,VWS V14.01,2013-01-04 19:35:00,
2013-01-04 13:40:00,48.6,39.6,30.30,NE,54,15.2,15.2,71,0.00,,---,0.02,VWS V14.01,2013-01-04 19:40:00,
2013-01-04 13:45:00,48.6,39.6,30.29,NNE,20,11.2,16.2,71,0.00,,---,0.02,VWS V14.01,2013-01-04 19:45:00,
2013-01-04 13:50:00,48.6,39.3,30.29,NE,38,12.2,18.2,70,0.00,,---,0.02,VWS V14.01,2013-01-04 19:50:00,
2013-01-04 13:55:00,48.6,39.6,30.29,ENE,67,12.2,17.2,71,0.00,,---,0.02,VWS V14.01,2013-01-04 19:55:00,
2013-01-04 14:00:00,48.6,39.6,30.29,North,9,9.2,17.2,71,0.00,,---,0.02,VWS V14.01,2013-01-04 20:00:00,
2013-01-04 14:05:00,48.6,39.6,30.29,NE,55,13.2,17.2,71,0.00,,---,0.02,VWS V14.01,2013-01-04 20:05:00,
2013-01-04 14:10:00,48.6,39.6,30.29,NNE,13,13.2,18.2,71,0.00,,---,0.02,VWS V14.01,2013-01-04 20:10:00,
2013-01-04 14:15:00,48.8,39.8,30.29,North,5,8.2,19.2,71,0.00,,---,0.02,VWS V14.01,2013-01-04 20:15:00,
2013-01-04 14:20:00,48.8,39.8,30.29,North,355,6.2,15.2,71,0.00,,---,0.02,VWS V14.01,2013-01-04 20:20:00,
2013-01-04 14:25:00,48.8,39.8,30.29,NE,42,13.2,21.2,71,0.00,,---,0.02,VWS V14.01,2013-01-04 20:25:00,
2013-01-04 14:30:00,48.9,39.9,30.27,NNE,33,13.2,19.2,71,0.00,,---,0.02,VWS V14.01,2013-01-04 20:30:00,
2013-01-04 14:35:00,48.9,39.9,30.27,North,360,14.2,17.2,71,0.00,,---,0.02,VWS V14.01,2013-01-04 20:35:00,
2013-01-04 14:40:00,48.9,39.6,30.27,NNE,16,9.2,17.2,70,0.00,,---,0.02,VWS V14.01,2013-01-04 20:40:00,
2013-01-04 14:45:00,48.9,39.6,30.27,NNE,26,7.2,17.2,70,0.00,,---,0.02,VWS V14.01,2013-01-04 20:45:00,
2013-01-04 14:50:00,48.9,39.9,30.27,North,11,5.2,17.2,71,0.00,,---,0.02,VWS V14.01,2013-01-04 20:50:00,
2013-01-04 14:55:00,49.1,40.5,30.27,NE,53,7.2,16.2,72,0.00,,---,0.02,VWS V14.01,2013-01-04 20:55:00,
2013-01-04 15:00:00,48.9,39.6,30.27,NNE,21,7.2,17.2,70,0.00,,---,0.02,VWS V14.01,2013-01-04 21:00:00,
2013-01-04 15:05:00,49.1,39.8,30.27,NNE,23,12.2,13.2,70,0.00,,---,0.02,VWS V14.01,2013-01-04 21:05:00,
2013-01-04 15:10:00,49.1,39.4,30.27,North,9,11.2,15.2,69,0.00,,---,0.02,VWS V14.01,2013-01-04 21:10:00,
2013-01-04 15:15:00,49.1,39.4,30.27,NNE,30,14.2,16.2,69,0.00,,---,0.02,VWS V14.01,2013-01-04 21:15:00,
2013-01-04 15:20:00,49.1,39.4,30.27,NE,46,5.2,15.2,69,0.00,,---,0.02,VWS V14.01,2013-01-04 21:20:00,
2013-01-04 15:25:00,49.1,39.4,30.27,ENE,61,13.2,15.2,69,0.00,,---,0.02,VWS V14.01,2013-01-04 21:25:00,
2013-01-04 15:30:00,49.2,39.5,30.27,NNE,13,10.2,14.2,69,0.00,,---,0.02,VWS V14.01,2013-01-04 21:30:00,
2013-01-04 15:35:00,49.2,38.7,30.27,NNE,13,6.2,13.2,67,0.00,,---,0.02,VWS V14.01,2013-01-04 21:35:00,
2013-01-04 15:40:00,49.4,39.7,30.27,NNE,15,8.2,14.2,69,0.00,,---,0.02,VWS V14.01,2013-01-04 21:40:00,
2013-01-04 15:45:00,49.5,40.1,30.27,NE,42,8.2,13.2,70,0.00,,---,0.02,VWS V14.01,2013-01-04 21:45:00,
2013-01-04 15:50:00,49.5,40.1,30.27,North,355,12.2,14.2,70,0.00,,---,0.02,VWS V14.01,2013-01-04 21:50:00,
2013-01-04 15:55:00,49.5,40.1,30.27,NNE,17,8.2,14.2,70,0.00,,---,0.02,VWS V14.01,2013-01-04 21:55:00,
2013-01-04 16:00:00,49.5,40.1,30.27,NNE,12,7.2,14.2,70,0.00,,---,0.02,VWS V14.01,2013-01-04 22:00:00,
2013-01-04 16:05:00,49.5,39.8,30.27,NNW,348,10.2,13.2,69,0.00,,---,0.02,VWS V14.01,2013-01-04 22:05:00,
2013-01-04 16:10:00,49.5,39.8,30.27,NNW,339,11.2,15.2,69,0.00,,---,0.02,VWS V14.01,2013-01-04 22:10:00,
2013-01-04 16:15:00,49.5,39.8,30.27,NE,41,5.2,15.2,69,0.00,,---,0.02,VWS V14.01,2013-01-04 22:15:00,
2013-01-04 16:20:00,49.5,39.8,30.27,NNE,19,6.2,13.2,69,0.00,,---,0.02,VWS V14.01,2013-01-04 22:20:00,
2013-01-04 16:25:00,49.4,39.7,30.27,NNE,19,6.2,14.2,69,0.00,,---,0.02,VWS V14.01,2013-01-04 22:25:00,
2013-01-04 16:30:00,49.4,39.7,30.27,NNE,15,7.2,11.2,69,0.00,,---,0.02,VWS V14.01,2013-01-04 22:30:00,
2013-01-04 16:35:00,49.4,39.7,30.27,North,11,5.2,8.2,69,0.00,,---,0.02,VWS V14.01,2013-01-04 22:35:00,
2013-01-04 16:40:00,49.4,40.0,30.27,NNE,24,5.2,11.2,70,0.00,,---,0.02,VWS V14.01,2013-01-04 22:40:00,
2013-01-04 16:45:00,49.4,40.0,30.28,NNE,24,5.2,10.2,70,0.00,,---,0.02,VWS V14.01,2013-01-04 22:45:00,
2013-01-04 16:50:00,49.4,39.7,30.28,NE,38,9.2,12.2,69,0.00,,---,0.02,VWS V14.01,2013-01-04 22:50:00,
2013-01-04 16:55:00,49.4,38.1,30.28,NNW,342,6.2,13.2,65,0.00,,---,0.02,VWS V14.01,2013-01-04 22:55:00,
2013-01-04 17:00:00,49.4,39.7,30.28,North,355,5.2,10.2,69,0.00,,---,0.02,VWS V14.01,2013-01-04 23:00:00,
2013-01-04 17:05:00,49.4,39.7,30.28,NNW,342,5.2,11.2,69,0.00,,---,0.02,VWS V14.01,2013-01-04 23:05:00,
2013-01-04 17:10:00,49.2,39.1,30.28,NNE,26,7.2,10.2,68,0.00,,---,0.02,VWS V14.01,2013-01-04 23:10:00,
2013-01-04 17:15:00,49.2,38.7,30.29,NE,41,7.2,15.2,67,0.00,,---,0.02,VWS V14.01,2013-01-04 23:15:00,
2013-01-04 17:20:00,49.2,38.7,30.29,NE,39,8.2,13.2,67,0.00,,---,0.02,VWS V14.01,2013-01-04 23:20:00,
2013-01-04 17:25:00,49.2,38.7,30.29,NE,40,11.2,14.2,67,0.00,,---,0.02,VWS V14.01,2013-01-04 23:25:00,
2013-01-04 17:30:00,49.2,39.1,30.27,NE,52,12.2,13.2,68,0.00,,---,0.02,VWS V14.01,2013-01-04 23:30:00,
2013-01-04 17:35:00,49.2,38.7,30.27,NE,49,6.2,13.2,67,0.00,,---,0.02,VWS V14.01,2013-01-04 23:35:00,
2013-01-04 17:40:00,49.2,38.7,30.27,North,5,6.2,13.2,67,0.00,,---,0.02,VWS V14.01,2013-01-04 23:40:00,
2013-01-04 17:45:00,49.2,38.7,30.28,NNE,32,6.2,13.2,67,0.00,,---,0.02,VWS V14.01,2013-01-04 23:45:00,
2013-01-04 17:50:00,49.2,38.7,30.28,NE,46,7.2,14.2,67,0.00,,---,0.02,VWS V14.01,2013-01-04 23:50:00,
2013-01-04 17:55:00,49.2,38.7,30.28,North,9,6.2,13.2,67,0.00,,---,0.02,VWS V14.01,2013-01-04 23:55:00,
2013-01-04 18:00:00,49.4,38.9,30.29,NNE,14,6.2,15.2,67,0.00,,---,0.02,VWS V14.01,2013-01-05 00:00:00,
2013-01-04 18:05:00,49.4,39.3,30.29,NNE,20,6.2,10.2,68,0.00,,---,0.02,VWS V14.01,2013-01-05 00:05:00,
2013-01-04 18:10:00,49.4,39.3,30.29,NE,42,7.2,12.2,68,0.00,,---,0.02,VWS V14.01,2013-01-05 00:10:00,
2013-01-04 18:15:00,49.4,39.3,30.29,NNE,22,11.2,13.2,68,0.00,,---,0.02,VWS V14.01,2013-01-05 00:15:00,
2013-01-04 18:20:00,49.4,39.3,30.29,NNE,17,5.2,11.2,68,0.00,,---,0.02,VWS V14.01,2013-01-05 00:20:00,
2013-01-04 18:25:00,49.4,39.7,30.29,NE,51,7.2,13.2,69,0.00,,---,0.02,VWS V14.01,2013-01-05 00:25:00,
2013-01-04 18:30:00,49.4,39.7,30.28,NNE,25,10.2,13.2,69,0.00,,---,0.02,VWS V14.01,2013-01-05 00:30:00,
2013-01-04 18:35:00,49.4,39.7,30.28,NNE,22,7.2,11.2,69,0.00,,---,0.02,VWS V14.01,2013-01-05 00:35:00,
2013-01-04 18:46:00,49.4,39.7,30.28,NNE,22,8.2,13.2,69,0.00,,---,0.02,VWS V14.01,2013-01-05 00:46:00,
2013-01-04 18:51:00,49.4,39.7,30.29,NNE,30,7.2,11.2,69,0.00,,---,0.02,VWS V14.01,2013-01-05 00:51:00,
2013-01-04 18:56:00,49.4,40.0,30.29,North,11,8.2,11.2,70,0.00,,---,0.02,VWS V14.01,2013-01-05 00:56:00,
2013-01-04 19:01:00,49.4,40.0,30.29,NNE,19,10.2,13.2,70,0.00,,---,0.02,VWS V14.01,2013-01-05 01:01:00,
2013-01-04 19:06:00,49.4,40.0,30.29,NNE,28,5.2,5.2,70,0.00,,---,0.02,VWS V14.01,2013-01-05 01:06:00,
2013-01-04 19:11:00,49.4,40.0,30.29,NNE,22,8.2,13.2,70,0.00,,---,0.02,VWS V14.01,2013-01-05 01:11:00,
2013-01-04 19:16:00,49.4,40.4,30.29,NNE,13,4.2,4.2,71,0.00,,---,0.02,VWS V14.01,2013-01-05 01:16:00,
2013-01-04 19:21:00,49.4,40.8,30.29,NE,36,3.2,5.2,72,0.00,,---,0.02,VWS V14.01,2013-01-05 01:21:00,
2013-01-04 19:26:00,49.2,40.6,30.29,North,10,3.2,10.2,72,0.00,,---,0.02,VWS V14.01,2013-01-05 01:26:00,
2013-01-04 19:31:00,49.2,40.9,30.30,North,355,6.2,6.2,73,0.00,,---,0.02,VWS V14.01,2013-01-05 01:31:00,
2013-01-04 19:36:00,49.1,40.8,30.30,North,5,6.2,10.2,73,0.00,,---,0.02,VWS V14.01,2013-01-05 01:36:00,
2013-01-04 19:41:00,49.1,40.8,30.30,North,5,12.2,13.2,73,0.00,,---,0.02,VWS V14.01,2013-01-05 01:41:00,
2013-01-04 19:46:00,49.1,40.8,30.30,NNE,21,6.2,14.2,73,0.00,,---,0.02,VWS V14.01,2013-01-05 01:46:00,
2013-01-04 19:51:00,49.1,40.8,30.30,NE,55,6.2,13.2,73,0.00,,---,0.02,VWS V14.01,2013-01-05 01:51:00,
2013-01-04 19:56:00,48.9,40.6,30.30,NE,37,8.2,13.2,73,0.00,,---,0.02,VWS V14.01,2013-01-05 01:56:00,
2013-01-04 20:01:00,48.9,40.6,30.30,NNE,16,6.2,12.2,73,0.00,,---,0.02,VWS V14.01,2013-01-05 02:01:00,
2013-01-04 20:06:00,48.9,40.3,30.30,NNE,15,12.2,17.2,72,0.00,,---,0.02,VWS V14.01,2013-01-05 02:06:00,
2013-01-04 20:11:00,48.9,40.3,30.30,NE,41,6.2,16.2,72,0.00,,---,0.02,VWS V14.01,2013-01-05 02:11:00,
2013-01-04 20:16:00,48.8,40.5,30.29,North,5,6.2,12.2,73,0.00,,---,0.02,VWS V14.01,2013-01-05 02:16:00,
2013-01-04 20:21:00,48.8,40.5,30.29,North,11,7.2,13.2,73,0.00,,---,0.02,VWS V14.01,2013-01-05 02:21:00,
2013-01-04 20:26:00,48.8,40.5,30.29,North,5,7.2,13.2,73,0.00,,---,0.02,VWS V14.01,2013-01-05 02:26:00,
2013-01-04 20:31:00,48.6,40.3,30.30,NE,41,8.2,13.2,73,0.00,,---,0.02,VWS V14.01,2013-01-05 02:31:00,
2013-01-04 20:36:00,48.6,40.0,30.30,NNE,22,7.2,14.2,72,0.00,,---,0.02,VWS V14.01,2013-01-05 02:36:00,
2013-01-04 20:41:00,48.6,40.0,30.30,North,5,9.2,15.2,72,0.00,,---,0.02,VWS V14.01,2013-01-05 02:41:00,
2013-01-04 20:46:00,48.6,40.0,30.30,North,351,5.2,14.2,72,0.00,,---,0.02,VWS V14.01,2013-01-05 02:46:00,
2013-01-04 20:51:00,48.6,40.0,30.30,NNE,15,8.2,13.2,72,0.00,,---,0.02,VWS V14.01,2013-01-05 02:51:00,
2013-01-04 20:56:00,48.6,40.0,30.30,NNE,31,8.2,11.2,72,0.00,,---,0.02,VWS V14.01,2013-01-05 02:56:00,
2013-01-04 21:01:00,48.6,40.0,30.30,NE,44,8.2,13.2,72,0.00,,---,0.02,VWS V14.01,2013-01-05 03:01:00,
2013-01-04 21:06:00,48.6,40.0,30.30,NNE,32,7.2,12.2,72,0.00,,---,0.02,VWS V14.01,2013-01-05 03:06:00,
2013-01-04 21:11:00,48.5,39.5,30.30,NNE,17,11.2,16.2,71,0.00,,---,0.02,VWS V14.01,2013-01-05 03:11:00,
2013-01-04 21:16:00,48.6,39.6,30.29,NNW,344,11.2,16.2,71,0.00,,---,0.02,VWS V14.01,2013-01-05 03:16:00,
2013-01-04 21:21:00,48.6,39.6,30.29,North,5,3.2,16.2,71,0.00,,---,0.02,VWS V14.01,2013-01-05 03:21:00,
2013-01-04 21:26:00,48.6,39.6,30.29,NNW,348,7.2,12.2,71,0.00,,---,0.02,VWS V14.01,2013-01-05 03:26:00,
2013-01-04 21:31:00,48.6,40.0,30.30,North,5,4.2,10.2,72,0.00,,---,0.02,VWS V14.01,2013-01-05 03:31:00,
2013-01-04 21:36:00,48.6,39.6,30.30,North,355,14.2,14.2,71,0.00,,---,0.02,VWS V14.01,2013-01-05 03:36:00,
2013-01-04 21:41:00,48.6,39.6,30.30,NNE,13,5.2,13.2,71,0.00,,---,0.02,VWS V14.01,2013-01-05 03:41:00,
2013-01-04 21:46:00,48.6,39.6,30.30,NNE,33,7.2,13.2,71,0.00,,---,0.02,VWS V14.01,2013-01-05 03:46:00,
2013-01-04 21:51:00,48.6,39.6,30.30,NNW,342,5.2,13.2,71,0.00,,---,0.02,VWS V14.01,2013-01-05 03:51:00,
2013-01-04 21:56:00,48.6,39.3,30.30,North,9,7.2,15.2,70,0.00,,---,0.02,VWS V14.01,2013-01-05 03:56:00,
2013-01-04 22:01:00,48.6,38.9,30.29,NNW,340,10.2,18.2,69,0.00,,---,0.02,VWS V14.01,2013-01-05 04:01:00,
2013-01-04 22:06:00,48.6,39.3,30.29,NE,38,12.2,14.2,70,0.00,,---,0.02,VWS V14.01,2013-01-05 04:06:00,
2013-01-04 22:11:00,48.6,39.3,30.29,NE,34,12.2,13.2,70,0.00,,---,0.02,VWS V14.01,2013-01-05 04:11:00,
2013-01-04 22:16:00,48.6,39.3,30.29,North,9,7.2,13.2,70,0.00,,---,0.02,VWS V14.01,2013-01-05 04:16:00,
2013-01-04 22:21:00,48.6,39.3,30.29,NNE,12,10.2,14.2,70,0.00,,---,0.02,VWS V14.01,2013-01-05 04:21:00,
2013-01-04 22:26:00,48.6,39.3,30.29,NE,44,4.2,14.2,70,0.00,,---,0.02,VWS V14.01,2013-01-05 04:26:00,
2013-01-04 22:31:00,48.6,39.3,30.29,North,360,6.2,13.2,70,0.00,,---,0.02,VWS V14.01,2013-01-05 04:31:00,
2013-01-04 22:36:00,48.6,39.3,30.29,NNE,20,11.2,14.2,70,0.00,,---,0.02,VWS V14.01,2013-01-05 04:36:00,
2013-01-04 22:41:00,48.6,39.3,30.29,NNE,18,6.2,14.2,70,0.00,,---,0.02,VWS V14.01,2013-01-05 04:41:00,
2013-01-04 22:46:00,48.5,39.2,30.29,North,10,7.2,14.2,70,0.00,,---,0.02,VWS V14.01,2013-01-05 04:46:00,
2013-01-04 22:51:00,48.6,39.3,30.29,North,9,6.2,14.2,70,0.00,,---,0.02,VWS V14.01,2013-01-05 04:51:00,
2013-01-04 22:56:00,48.6,39.3,30.29,North,355,7.2,16.2,70,0.00,,---,0.02,VWS V14.01,2013-01-05 04:56:00,
2013-01-04 23:00:00,48.5,39.2,30.29,NNE,30,6.2,14.2,70,0.00,,---,0.02,VWS V14.01,2013-01-05 05:00:00,
2013-01-04 23:01:00,48.5,39.2,30.29,North,5,4.2,7.2,70,0.00,,---,0.02,VWS V14.01,2013-01-05 05:01:00,
2013-01-04 23:06:00,48.5,39.5,30.29,NNE,31,5.2,8.2,71,0.00,,---,0.02,VWS V14.01,2013-01-05 05:06:00,
2013-01-04 23:11:00,48.5,39.5,30.29,NNE,19,5.2,9.2,71,0.00,,---,0.02,VWS V14.01,2013-01-05 05:11:00,
2013-01-04 23:16:00,48.5,39.2,30.29,NNW,344,5.2,8.2,70,0.00,,---,0.02,VWS V14.01,2013-01-05 05:16:00,
2013-01-04 23:21:00,48.5,39.5,30.29,North,5,6.2,12.2,71,0.00,,---,0.02,VWS V14.01,2013-01-05 05:21:00,
2013-01-04 23:26:00,48.5,39.5,30.29,NNW,336,6.2,9.2,71,0.00,,---,0.02,VWS V14.01,2013-01-05 05:26:00,
2013-01-04 23:31:00,48.5,39.5,30.28,North,5,11.2,12.2,71,0.00,,---,0.02,VWS V14.01,2013-01-05 05:31:00,
2013-01-04 23:36:00,48.5,39.5,30.28,NNW,341,10.2,11.2,71,0.00,,---,0.02,VWS V14.01,2013-01-05 05:36:00,
2013-01-04 23:41:00,48.5,39.5,30.28,NNE,25,5.2,6.2,71,0.00,,---,0.02,VWS V14.01,2013-01-05 05:41:00,
2013-01-04 23:46:00,48.5,39.2,30.27,NNE,26,7.2,15.2,70,0.00,,---,0.02,VWS V14.01,2013-01-05 05:46:00,
2013-01-04 23:51:00,48.3,38.6,30.27,North,5,13.2,13.2,69,0.00,,---,0.02,VWS V14.01,2013-01-05 05:51:00,
2013-01-04 23:56:00,48.3,38.6,30.27,North,355,3.2,7.2,69,0.00,,---,0.02,VWS V14.01,2013-01-05 05:56:00,